Flag for U.S.A. Weather past 2 weeks in Greenville, South Carolina, U.S.A.

Now
70 °F

Light rain. Fog.


Feels Like: 65 °F
Forecast: 67 / 84 °F
Wind: 3 mph from Southwest

Location: Greenville Downtown Airport

Current Time: Sep 16, 2014 at 1:23:48 AM

Latest Report: Sep 16, 2014 at 1:00 AM


Visibility: 4 mi

Pressure: 30.15 "Hg

Humidity: 93%

Dew point: 68 °F

Location of GreenvilleLocation

Historic Weather in Greenville — Graph

°F

Greenville temperature yesterday

Maximum temperature yesterday: 75 °F (at 12:53 PM)
Minimum temperature yesterday: 64 °F (at 1:53 AM)
Average temperature yesterday: 69 °F

Past Weeks' High & Low Weather Summary

 TemperatureHumidityPressure
High93 °F (Sep 2, 2:53 PM)97% (Sep 13, 5:53 AM)30.27 "Hg (Sep 13, 5:53 AM)
Low62 °F (Sep 14, 6:53 AM)38% (Sep 1, 4:53 PM)29.94 "Hg (Sep 6, 5:53 PM)
Average76 °F76%30.08 "Hg
* Reported Aug 31 11:53 PM — Sep 15 11:53 PM, Greenville, Weather by CustomWeather, © 2014

Note: Actual official high and low records may vary slightly from our data, if they occured in-between our weather recording intervals... More about our weather records

Advertising

Greenville weather history for previous 24 hours

 ConditionsComfort  
Time TempWeatherWind HumidityBarometerVisibility
11:53 PM
Sep 15
70 °FFog.3 mph93%30.14 "Hg5 mi
10:53 PM71 °FFog.5 mph90%30.15 "Hg6 mi
9:53 PM71 °FPassing clouds.No wind90%30.14 "Hg8 mi
8:53 PM71 °FLight rain. Mostly cloudy.5 mph90%30.15 "Hg8 mi
7:53 PM72 °FLight rain. Mostly cloudy.5 mph84%30.14 "Hg10 mi
6:53 PM73 °FCloudy.7 mph81%30.13 "Hg10 mi
5:53 PM74 °FMostly cloudy.5 mph76%30.12 "Hg10 mi
4:53 PM74 °FMostly cloudy.5 mph76%30.13 "Hg10 mi
3:53 PM74 °FOvercast.3 mph76%30.14 "Hg10 mi
2:53 PM74 °FOvercast.5 mph74%30.16 "Hg10 mi
1:53 PM74 °FOvercast.7 mph71%30.18 "Hg10 mi
12:53 PM75 °FMostly cloudy.No wind69%30.19 "Hg10 mi
11:53 AM72 °FOvercast.3 mph73%30.21 "Hg10 mi
10:53 AM70 °FOvercast.No wind76%30.22 "Hg10 mi
9:53 AM68 °FOvercast.5 mph82%30.23 "Hg10 mi
8:53 AM67 °FOvercast.5 mph81%30.22 "Hg10 mi
7:53 AM66 °FOvercast.No wind84%30.22 "Hg9 mi
7:04 AM65 °FMostly cloudy.No wind87%30.24 "Hg10 mi
6:53 AM65 °FOvercast.No wind87%30.22 "Hg10 mi
5:53 AM65 °FMostly cloudy.No wind87%30.21 "Hg10 mi
5:03 AM64 °FPassing clouds.No wind90%30.22 "Hg9 mi
4:53 AM64 °FPartly cloudy.No wind90%30.20 "Hg9 mi
3:53 AM64 °FOvercast.5 mph90%30.21 "Hg9 mi
2:53 AM64 °FLow clouds.6 mph90%30.22 "Hg9 mi
1:53 AM64 °FOvercast.5 mph90%30.23 "Hg9 mi
1:04 AM65 °FOvercast.5 mph85%30.26 "Hg10 mi
Weather by CustomWeather, © 2014

See weather overviewHow to use our weather pages